Snowfall_Accumulation
0.0 0.0 0.0 0.0 0.0 0.0 0.0 0.0 0.0 0.0 0.0 0.0 0.0 0.0 0.0 0.0 0.0 0.0 0.0 0.0 0.0 0.0
0.0 0.0 0.0 0.0 0.0 0.0 0.0 0.0 0.0 0.0 0.0 0.0 0.0 0.0 0.0 0.0 0.0 0.0 0.0 0.0 0.0 0.0
0.0 0.0 0.0 0.0 0.0 0.0 0.0 0.0 0.0 0.0 0.0 0.0 0.0 0.0 0.0 0.0 0.0 0.0 0.0 0.0 0.0 0.0
0.0 0.0 0.0 0.0 0.0 0.0 0.0 0.0 0.0 0.0 0.0 0.0 0.0 0.0 0.0 0.0 0.0 0.0 0.0 0.0 0.0 0.0
0.0 0.0 0.0 0.0 0.0 0.0 0.0 0.0 0.0 0.0 0.0 0.0 0.1 0.0 0.1 0.0 0.0 0.1 0.0 0.0 0.0 0.1
0.0 0.0 0.0 0.1 0.0 0.0 0.1 0.0 0.0 0.0 0.0 0.1 0.1 0.1 0.3 0.1 0.1 0.3 0.1 0.4 0.3 0.6
0.1 1.0 0.2 0.1 0.5 1.3 0.2 0.2 0.2 0.3 0.2 0.2 0.1 0.0 0.1 0.1 0.1 0.1 0.2 0.1 0.2 0.1
0.9 0.3 0.6 1.7 2.3 2.1 1.8 1.4 1.9 2.0 1.2 0.2 0.7 0.7 0.3 0.5 0.3 0.2 0.1 0.1 0.1 0.1
0.0 0.1 0.2 0.6 0.5 0.2 0.8 2.6 0.8 2.7 1.0 1.5 0.2 nan nan 1.7 3.1 3.1 2.6 4.4 2.3 0.5
0.0 0.1 0.3 0.5 0.9 1.1 0.9 0.5 0.4 0.5 0.2 0.2 0.1 nan nan nan 2.0 3.8 4.7 4.3 4.4 3.8
0.1 0.3 0.5 0.8 0.8 0.9 1.0 1.0 1.0 0.5 0.3 0.1 0.0 nan nan nan 0.0 0.0 0.1 0.1 0.1 0.1
0.1 0.3 0.5 0.8 0.9 1.1 1.4 1.5 1.6 1.0 0.7 0.4 0.3 nan nan 0.1 0.0 0.0 0.1 0.0 0.0 0.0
0.2 0.4 0.8 1.2 1.7 1.8 1.9 2.1 2.8 2.2 1.5 nan 0.6 nan nan nan 0.2 0.1 0.9 0.2 0.2 nan
0.4 1.2 1.4 2.6 3.1 3.7 4.1 3.9 4.0 3.5 2.9 2.5 1.6 1.3 nan nan 0.5 2.3 2.2 2.3 2.6 2.2
Water_Equivalent
0.00 0.00 0.00 0.00 0.00 0.00 0.00 0.00 0.00 0.00 0.00 0.00 0.00 0.00 0.00 0.00 0.00 0.00 0.00 0.00 0.00 0.00
0.00 0.00 0.00 0.00 0.00 0.00 0.00 0.00 0.00 0.00 0.00 0.00 0.00 0.00 0.00 0.00 0.00 0.00 0.00 0.00 0.00 0.00
0.00 0.00 0.00 0.00 0.00 0.00 0.00 0.00 0.00 0.00 0.00 0.00 0.00 0.00 0.00 0.00 0.00 0.00 0.00 0.00 0.00 0.00
0.00 0.00 0.00 0.00 0.00 0.00 0.00 0.00 0.00 0.00 0.00 0.00 0.00 0.00 0.00 0.00 0.00 0.00 0.00 0.00 0.00 0.00
0.00 0.00 0.00 0.00 0.00 0.00 0.01 0.00 0.00 0.00 0.00 0.01 0.02 0.01 0.01 0.01 0.01 0.02 0.01 0.00 0.01 0.02
0.00 0.00 0.02 0.02 0.01 0.01 0.02 0.01 0.00 0.00 0.01 0.01 0.02 0.03 0.10 0.03 0.01 0.07 0.02 0.08 0.07 0.12
0.04 0.40 0.06 0.04 0.15 0.42 0.06 0.07 0.07 0.08 0.06 0.04 0.02 0.01 0.02 0.02 0.02 0.02 0.04 0.02 0.03 0.02
0.35 0.12 0.25 0.66 0.82 0.72 0.57 0.47 0.68 0.67 0.35 0.05 0.19 0.19 0.07 0.14 0.07 0.05 0.03 0.03 0.02 0.02
0.00 0.02 0.06 0.11 0.10 0.05 0.20 0.75 0.21 0.94 0.27 0.39 0.04 nan nan 0.48 0.89 0.85 0.63 1.03 0.59 0.13
0.00 0.03 0.06 0.10 0.16 0.19 0.15 0.08 0.07 0.11 0.05 0.04 0.03 nan nan nan 0.52 1.00 1.21 1.02 1.09 0.90
0.03 0.06 0.10 0.14 0.15 0.16 0.15 0.17 0.17 0.08 0.05 0.02 0.01 nan nan nan 0.00 0.00 0.02 0.03 0.02 0.01
0.03 0.06 0.09 0.15 0.17 0.19 0.24 0.25 0.27 0.16 0.11 0.07 0.06 nan nan 0.01 0.00 0.00 0.02 0.01 0.01 0.00
0.03 0.08 0.15 0.22 0.28 0.29 0.29 0.34 0.53 0.33 0.25 nan 0.11 nan nan nan 0.06 0.03 0.21 0.05 0.04 nan
0.10 0.25 0.31 0.50 0.58 0.65 0.67 0.60 0.64 0.56 0.55 0.58 0.34 0.25 nan nan 0.12 0.52 0.50 0.54 0.59 0.52
SL_Ratio
nan nan nan nan nan nan nan nan nan nan nan nan nan nan nan nan nan nan nan nan nan nan
nan nan nan nan nan nan nan nan nan nan nan nan nan nan nan nan nan nan nan nan nan nan
nan nan nan nan nan nan nan nan nan nan nan nan nan nan nan nan nan nan nan nan nan nan
nan nan nan nan nan nan nan nan nan nan nan nan nan nan nan nan nan nan nan nan nan nan
nan nan nan nan nan nan 2.9 nan nan nan 10.0 3.5 3.3 3.5 3.6 4.1 4.3 4.2 4.6 4.2 4.4 3.8
2.7 nan 2.8 2.8 2.8 3.1 3.2 3.2 3.1 4.0 3.9 4.1 3.5 3.8 3.4 3.7 4.4 4.4 4.9 4.9 4.7 4.7
2.5 2.5 2.8 2.9 3.3 3.1 3.2 3.3 3.2 3.7 3.7 3.6 3.5 4.1 4.3 4.5 4.6 4.7 5.0 5.1 5.1 5.1
2.5 2.5 2.5 2.5 2.8 3.0 3.2 3.1 2.9 2.9 3.6 4.0 3.7 3.8 4.0 3.5 4.0 4.4 4.4 4.0 3.8 4.2
nan 4.1 4.1 5.1 5.0 4.7 4.1 3.5 3.8 2.9 3.8 4.0 4.1 nan nan 3.4 3.5 3.6 4.2 4.2 3.9 3.8
5.0 4.5 5.1 5.5 5.5 5.8 6.0 5.6 5.1 4.5 4.6 4.8 4.4 nan nan nan 3.8 3.8 3.9 4.2 4.0 4.3
4.6 5.1 5.3 5.6 5.4 5.6 6.3 6.1 6.2 6.0 5.9 6.0 5.8 nan nan nan 5.0 5.0 4.6 4.5 4.4 4.8
4.6 5.5 5.2 5.0 5.5 5.7 6.0 6.1 5.8 6.3 6.1 5.8 5.5 nan nan 5.7 6.3 3.3 4.6 4.7 4.6 5.5
4.8 5.3 5.4 5.6 6.3 6.4 6.4 6.2 5.3 6.6 5.9 nan 5.7 nan nan nan 3.9 4.3 4.0 4.2 4.4 nan
4.2 4.7 4.6 5.3 5.4 5.7 6.2 6.6 6.3 6.3 5.3 4.4 4.6 5.1 nan nan 4.0 4.4 4.4 4.3 4.4 4.1